[[{"header":{"parameterUnit":"m.s-1","parameterCategory":1,"la1":30.2991,"la2":30.254,"lo1":-89.0895,"lo2":-89.0444,"dy":0.0017,"dx":0.0017,"nx":28,"ny":28,"refTime":"2024-07-18T03:00:00:Z","depth":0,"parameterNumber":2,"parameterNumberName":"U-component_of_WINDS"},"data":[0,0,0,0,0,0,0,0,0,0,0,0,0,0,0,0,0,0,0,0,0,0,0,0,0,0,0,0,0,0,0,0,0,0,0,0,0,0,0,0,0,0,0,0,0,0,0,0,0,0,0,0,0,0,0,0,0,0,1.8299,1.8298,0,1.8201,1.82,1.8199,1.8109,1.8108,1.8106,1.8105,1.8014,1.8013,1.8012,0,0,0,0,0,0,0,0,0,0,0,0,0,1.8415,1.8413,1.8299,1.8298,1.8296,1.8201,1.82,1.8199,1.8109,1.8108,1.8106,1.8105,1.8015,1.8013,1.8011,0,0,0,0,0,0,0,0,0,0,0,0,0,1.8346,1.8413,1.8299,1.824,1.8234,1.8202,1.82,1.8198,1.8109,1.8108,1.8106,1.8104,1.8015,1.8013,1.8011,1.8033,0,0,1.8005,1.8004,0,0,0,0,0,0,0,0,1.835,1.8342,1.825,1.8244,1.8237,1.8165,1.8207,1.8143,1.811,1.8157,1.8105,1.8103,1.8066,1.806,1.8046,1.8028,1.8024,1.8005,1.8003,1.8003,1.8002,0,0,0,0,0,0,0,1.8355,1.8346,1.8261,1.8249,1.8241,1.8221,1.8209,1.8195,1.8123,1.8153,1.8146,1.8135,1.8063,1.8048,1.8043,1.8023,1.8005,1.8003,1.8002,1.8001,1.8018,1.802,0,0,0,0,0,0,1.8368,1.835,1.8264,1.8258,1.829,1.822,1.8207,1.819,1.8122,1.811,1.8136,1.8131,1.8052,1.8045,1.8039,1.806,1.8003,1.8001,1.7999,1.8017,1.8019,1.8021,0,0,0,0,0,0,1.8371,1.8361,1.8268,1.8302,1.8288,1.822,1.8202,1.8189,1.8174,1.811,1.8098,1.8134,1.8051,1.8042,1.8034,1.8055,1.8,1.7998,1.8015,1.8017,1.802,1.8101,0,0,0,0,0,0,1.8374,1.8362,1.8368,1.8303,1.8287,1.8262,1.8203,1.8188,1.817,1.8162,1.8105,1.8094,1.8049,1.8038,1.8032,1.8052,1.7996,1.8013,1.8016,1.8019,1.8097,1.8106,1.8115,0,0,0,0,0,1.8379,1.8397,1.8369,1.8359,1.8292,1.8263,1.8255,1.82,1.8172,1.8178,1.8137,1.8096,1.8054,1.8038,1.8031,1.805,1.8011,1.8015,1.8019,1.8092,1.8104,1.8115,0,0,0,0,0,0,1.847,1.8387,1.8355,1.8352,1.8315,1.8248,1.8254,1.8215,1.8187,1.8181,1.8117,1.8105,1.8104,1.8076,1.806,1.8067,1.8027,1.8029,1.8085,1.8096,1.8105,1.8113,1.7995,0,0,0,0,0,1.8489,1.847,1.84,1.8404,1.8387,1.8324,1.831,1.827,1.823,1.8215,1.8173,1.8139,1.8117,1.8105,1.8082,1.8092,1.8079,1.8101,1.8111,1.8118,1.8122,1.8125,1.8135,1.8033,1.8033,1.8033,0,0,1.853,1.8482,1.8475,1.8421,1.8388,1.8372,1.8312,1.8297,1.8285,1.8214,1.8203,1.8171,1.8128,1.8129,1.8127,1.8106,1.8147,1.8123,1.813,1.8129,1.813,1.814,1.8148,1.8036,1.8035,1.8035,0,0,1.8596,1.8557,1.8556,1.8523,1.8472,1.843,1.843,1.8368,1.8344,1.8331,1.8277,1.8263,1.8228,1.8199,1.818,1.8234,1.8196,1.8229,1.8277,1.8281,1.8289,1.8296,1.8316,1.8324,1.8232,1.8233,1.8233,0,1.8654,1.8624,1.8562,1.855,1.8529,1.8459,1.8459,1.8431,1.8377,1.8365,1.8341,1.8294,1.8261,1.8254,1.8267,1.8254,1.8253,1.8236,1.8292,1.8299,1.8304,1.8322,1.833,1.8237,1.8236,1.8236,1.8236,0,1.8698,1.8679,1.8685,1.863,1.861,1.8604,1.8543,1.853,1.8492,1.8454,1.8442,1.8399,1.8366,1.8361,1.8326,1.835,1.8338,1.8304,1.8262,1.8319,1.8335,1.8342,1.8243,1.8242,1.824,1.8239,0,0,1.8821,1.8729,1.8733,1.8707,1.8645,1.863,1.8622,1.8587,1.8577,1.8542,1.8535,1.8506,1.8474,1.8453,1.8413,1.8416,1.8462,1.8382,1.838,1.8399,1.8487,1.8513,1.8522,1.8436,1.8437,1.8438,1.849,0,1.8876,1.8854,1.8797,1.8794,1.8776,1.871,1.8703,1.8666,1.8629,1.861,1.8571,1.8552,1.851,1.8497,1.8497,1.8457,1.8479,1.8452,1.8431,1.8431,1.8444,1.853,1.8558,1.861,1.8496,1.8497,1.8498,0,1.8939,1.8904,1.8898,1.8836,1.8827,1.8821,1.8784,1.8766,1.8723,1.8696,1.8672,1.8627,1.8617,1.8578,1.8564,1.8547,1.8535,1.8514,1.8514,1.8511,1.8468,1.853,1.8625,1.8633,1.8507,1.8506,1.8506,0,1.9029,1.8981,1.8971,1.8951,1.8879,1.8876,1.8847,1.8801,1.8784,1.8752,1.874,1.8709,1.8693,1.8671,1.862,1.8596,1.8612,1.8568,1.8591,1.8593,1.8599,1.8599,1.8694,1.859,1.859,1.859,1.859,0,1.9098,1.9097,1.901,1.9005,1.9002,1.8937,1.8938,1.8902,1.8862,1.885,1.8792,1.8782,1.8715,1.8698,1.8659,1.8654,1.8647,1.8626,1.8616,1.8632,1.8635,1.8624,1.8619,1.8592,1.8591,1.8591,1.8591,0,1.9199,1.914,1.9125,1.9056,1.9039,1.9041,1.8983,1.8976,1.8935,1.892,1.8913,1.8851,1.8828,1.8774,1.8738,1.8711,1.8717,1.8698,1.8731,1.8724,1.875,1.8749,1.8842,1.8851,1.8742,1.8743,1.8744,0,1.9247,1.9244,1.9174,1.916,1.9131,1.911,1.909,1.9027,1.901,1.896,1.896,1.8931,1.8905,1.8872,1.8825,1.8798,1.8777,1.8812,1.8773,1.8789,1.8779,1.878,1.8779,1.8821,1.8823,1.8824,1.8825,0,1.9339,1.9309,1.9282,1.9244,1.9222,1.919,1.9155,1.9148,1.9077,1.9061,1.9035,1.9015,1.8976,1.895,1.8914,1.8886,1.8845,1.8837,1.8841,1.8857,1.8877,1.8867,1.8755,1.8835,1.8834,1.8834,1.8833,1.8833,1.9415,1.9409,1.9358,1.933,1.9296,1.9265,1.9254,1.9211,1.9187,1.9148,1.9113,1.9091,1.9049,1.8996,1.8971,1.8954,1.8933,1.8939,1.894,1.8943,1.895,1.8879,1.8948,1.8947,1.8947,1.8947,1.8946,0,1.9504,1.9467,1.9441,1.9393,1.9371,1.933,1.9289,1.9274,1.9254,1.9216,1.9191,1.9162,1.9135,1.9085,1.9055,1.9052,1.9032,1.9046,1.9046,1.9041,1.897,1.897,1.9062,1.9062,1.9062,1.9062,1.9062,1.9062,1.9548,1.9535,1.95,1.9471,1.9435,1.9411,1.9391,1.9363,1.9332,1.93,1.9277,1.9243,1.9201,1.9167,1.9142,1.9128,1.912,1.914,1.9121,1.9056,1.9046,1.9035,1.9034,1.9139,1.9139,1.9192,1.9192,1.9193]},{"header":{"parameterUnit":"m.s-1","parameterCategory":1,"la1":30.2991,"la2":30.254,"lo1":-89.0895,"lo2":-89.0444,"dy":0.0017,"dx":0.0017,"nx":28,"ny":28,"refTime":"2024-07-18T03:00:00:Z","depth":0,"parameterNumber":3,"parameterNumberName":"V-component_of_WINDS"},"data":[0,0,0,0,0,0,0,0,0,0,0,0,0,0,0,0,0,0,0,0,0,0,0,0,0,0,0,0,0,0,0,0,0,0,0,0,0,0,0,0,0,0,0,0,0,0,0,0,0,0,0,0,0,0,0,0,0,0,2.5892,2.5893,0,2.6048,2.605,2.6052,2.6074,2.6073,2.6071,2.607,2.6221,2.6226,2.6231,0,0,0,0,0,0,0,0,0,0,0,0,0,2.5601,2.5607,2.5892,2.5894,2.5896,2.6048,2.605,2.6052,2.6075,2.6073,2.6071,2.6069,2.6219,2.6225,2.6231,0,0,0,0,0,0,0,0,0,0,0,0,0,2.5739,2.5608,2.5891,2.5925,2.593,2.6048,2.605,2.6053,2.6075,2.6073,2.6071,2.6069,2.6217,2.6224,2.6232,2.6324,0,0,2.6257,2.626,0,0,0,0,0,0,0,0,2.5731,2.575,2.5918,2.5923,2.5929,2.604,2.6003,2.6143,2.6075,2.602,2.607,2.6068,2.6161,2.6174,2.6208,2.6331,2.6337,2.6257,2.6262,2.6266,2.6268,0,0,0,0,0,0,0,2.5722,2.5743,2.5953,2.5921,2.5927,2.5929,2.5946,2.603,2.61,2.6024,2.6026,2.6045,2.6164,2.62,2.6211,2.6339,2.6257,2.6264,2.6269,2.6272,2.6544,2.6546,0,0,0,0,0,0,2.5708,2.5735,2.5948,2.5958,2.5823,2.5936,2.5955,2.6006,2.6099,2.6112,2.6047,2.6046,2.6187,2.6202,2.6217,2.633,2.6266,2.6273,2.6278,2.6541,2.6544,2.6547,0,0,0,0,0,0,2.5701,2.5726,2.5942,2.5847,2.5875,2.5944,2.6,2.601,2.6047,2.6117,2.6128,2.6071,2.6186,2.6205,2.6297,2.6335,2.6277,2.6284,2.6538,2.6542,2.6545,2.6557,0,0,0,0,0,0,2.5693,2.5724,2.5762,2.5848,2.588,2.6024,2.6002,2.6015,2.6061,2.6061,2.6143,2.6154,2.6186,2.6285,2.6305,2.6345,2.629,2.6535,2.654,2.6544,2.6553,2.656,2.6566,0,0,0,0,0,2.5682,2.5757,2.5764,2.579,2.593,2.6026,2.6044,2.6082,2.6064,2.6102,2.6146,2.6151,2.6327,2.6295,2.6317,2.636,2.6533,2.6539,2.6544,2.655,2.6559,2.6566,0,0,0,0,0,0,2.5671,2.5769,2.5778,2.5883,2.5947,2.603,2.6078,2.609,2.6156,2.6153,2.6194,2.6212,2.6302,2.634,2.6301,2.6452,2.6428,2.6438,2.6425,2.6434,2.644,2.643,2.6297,0,0,0,0,0,2.5681,2.5754,2.5835,2.592,2.5951,2.6009,2.6052,2.6076,2.6142,2.6168,2.6219,2.6279,2.6348,2.6393,2.646,2.6558,2.6575,2.6598,2.6604,2.6609,2.6618,2.6671,2.6682,2.6565,2.6565,2.6565,0,0,2.5702,2.5765,2.5808,2.5919,2.5971,2.6043,2.6031,2.6108,2.616,2.6178,2.627,2.6309,2.6378,2.6474,2.6518,2.6508,2.6654,2.6616,2.662,2.6626,2.6678,2.6689,2.6699,2.6568,2.6568,2.6567,0,0,2.5777,2.5833,2.591,2.5962,2.6042,2.6079,2.6097,2.6179,2.6207,2.63,2.6314,2.6375,2.6493,2.6542,2.6583,2.6675,2.6681,2.6695,2.6729,2.678,2.679,2.6798,2.6831,2.6842,2.6703,2.6703,2.6703,0,2.5792,2.5905,2.5947,2.6024,2.6071,2.6093,2.6169,2.6217,2.6312,2.6343,2.6331,2.6479,2.6527,2.6634,2.6657,2.6689,2.6709,2.6687,2.6786,2.6794,2.6803,2.6834,2.6846,2.6704,2.6704,2.6704,2.6704,0,2.5919,2.5997,2.6049,2.6145,2.6197,2.6273,2.6323,2.6371,2.6389,2.6427,2.6519,2.6578,2.6658,2.6684,2.6702,2.6793,2.6784,2.6778,2.6755,2.6815,2.6845,2.6857,2.6706,2.6705,2.6705,2.6705,0,0,2.5994,2.6112,2.613,2.6174,2.6262,2.6321,2.6395,2.6476,2.6516,2.658,2.6643,2.6741,2.6737,2.6782,2.6805,2.685,2.6918,2.6838,2.684,2.6851,2.7021,2.7026,2.7039,2.6923,2.6925,2.6927,2.7015,0,2.608,2.622,2.6259,2.6375,2.6446,2.6466,2.6531,2.659,2.6627,2.6689,2.6727,2.6797,2.6786,2.6813,2.6859,2.6901,2.6953,2.6894,2.6979,2.6982,2.6963,2.7055,2.7061,2.7142,2.7027,2.7029,2.7031,0,2.62,2.627,2.6395,2.6474,2.6505,2.6563,2.664,2.67,2.6766,2.6789,2.684,2.6858,2.6933,2.6905,2.7008,2.6967,2.7003,2.7029,2.7033,2.7043,2.7011,2.7068,2.7168,2.7181,2.705,2.7048,2.7047,0,2.6242,2.6367,2.6458,2.6494,2.6588,2.6629,2.6669,2.6733,2.6779,2.6844,2.6873,2.6944,2.6984,2.7037,2.7073,2.7049,2.7172,2.7147,2.7192,2.7191,2.7218,2.7216,2.7326,2.724,2.7239,2.7239,2.7239,0,2.6335,2.641,2.6478,2.6534,2.6618,2.666,2.674,2.678,2.6837,2.6899,2.6918,2.6974,2.7018,2.7079,2.7107,2.7188,2.7205,2.7223,2.723,2.7223,2.7221,2.7248,2.7244,2.7242,2.7242,2.7241,2.7241,0,2.6397,2.6446,2.6546,2.6628,2.665,2.6708,2.6775,2.6828,2.6865,2.6942,2.6962,2.7018,2.7091,2.7132,2.7223,2.7241,2.7331,2.7334,2.731,2.7314,2.7356,2.7352,2.7489,2.7508,2.7408,2.7408,2.7409,0,2.6454,2.6513,2.6601,2.6646,2.6688,2.6758,2.6806,2.6847,2.6895,2.6974,2.7016,2.7091,2.7154,2.7268,2.7315,2.7383,2.7389,2.7432,2.7399,2.739,2.739,2.7387,2.7392,2.7438,2.7439,2.744,2.744,0,2.6549,2.6571,2.664,2.6719,2.6775,2.6838,2.6899,2.6933,2.6984,2.7036,2.7113,2.7161,2.7254,2.7327,2.74,2.7437,2.7446,2.745,2.7464,2.7458,2.7442,2.7451,2.7327,2.7447,2.7446,2.7446,2.7445,2.7445,2.6611,2.6664,2.6735,2.6812,2.6863,2.692,2.6974,2.7018,2.7084,2.7166,2.7185,2.7265,2.7327,2.7426,2.7464,2.7525,2.7517,2.7537,2.7543,2.7547,2.7549,2.7431,2.7538,2.7538,2.7538,2.7538,2.7538,0,2.6708,2.6755,2.6825,2.6912,2.6971,2.6978,2.7046,2.7094,2.7166,2.7224,2.7286,2.7372,2.7443,2.7495,2.7566,2.7605,2.761,2.7622,2.762,2.7628,2.7552,2.7534,2.7616,2.7616,2.7616,2.7616,2.7616,2.7616,2.6766,2.6857,2.6886,2.7001,2.7046,2.7128,2.7166,2.7217,2.7264,2.7362,2.7422,2.7457,2.7511,2.7587,2.7651,2.7664,2.7689,2.77,2.7713,2.7642,2.7633,2.7626,2.7608,2.7705,2.7705,2.7784,2.7785,2.7786]}]]